Time,TemperatureF,DewpointF,PressureIn,WindDirection,WindDirectionDegrees,WindSpeedMPH,WindSpeedGustMPH,Humidity,HourlyPrecipIn,Conditions,Clouds,dailyrainin,SolarRadiationWatts/m^2,SoftwareType,DateUTC
2013-02-23 00:01:00,35.0,24.4,29.49,SSE,164,8.0,15.0,65,0.00,,,0.00,0,Wunderground v.1.15,2013-02-23 07:01:00,
2013-02-23 00:07:00,35.2,24.2,29.49,South,175,13.0,15.0,64,0.00,,,0.00,0,Wunderground v.1.15,2013-02-23 07:07:00,
2013-02-23 00:12:00,35.3,24.3,29.49,SE,142,12.0,15.0,64,0.00,,,0.00,0,Wunderground v.1.15,2013-02-23 07:12:00,
2013-02-23 00:17:00,35.4,24.4,29.49,SSE,153,8.0,15.0,64,0.00,,,0.00,0,Wunderground v.1.15,2013-02-23 07:17:00,
2013-02-23 00:23:00,35.2,24.2,29.49,SSE,150,10.0,11.0,64,0.00,,,0.00,0,Wunderground v.1.15,2013-02-23 07:23:00,
2013-02-23 00:28:00,35.1,24.5,29.49,South,172,6.0,14.0,65,0.00,,,0.00,0,Wunderground v.1.15,2013-02-23 07:28:00,
2013-02-23 00:33:00,35.1,24.5,29.48,SE,141,2.0,10.0,65,0.00,,,0.00,0,Wunderground v.1.15,2013-02-23 07:33:00,
2013-02-23 00:39:00,35.0,24.4,29.48,SE,145,6.0,8.0,65,0.00,,,0.00,0,Wunderground v.1.15,2013-02-23 07:39:00,
2013-02-23 00:44:00,35.0,24.4,29.48,South,186,8.0,11.0,65,0.00,,,0.00,0,Wunderground v.1.15,2013-02-23 07:44:00,
2013-02-23 00:50:00,34.8,24.6,29.47,SSE,167,0.0,5.0,66,0.00,,,0.00,0,Wunderground v.1.15,2013-02-23 07:50:00,
2013-02-23 00:55:00,34.7,24.5,29.47,SSW,193,0.0,5.0,66,0.00,,,0.00,0,Wunderground v.1.15,2013-02-23 07:55:00,
2013-02-23 01:00:00,34.6,24.4,29.47,SSE,165,3.0,4.0,66,0.00,,,0.00,0,Wunderground v.1.15,2013-02-23 08:00:00,
2013-02-23 01:06:00,34.7,24.5,29.47,SSE,156,2.0,5.0,66,0.00,,,0.00,0,Wunderground v.1.15,2013-02-23 08:06:00,
2013-02-23 01:11:00,34.9,24.3,29.47,SE,132,0.0,3.0,65,0.00,,,0.00,0,Wunderground v.1.15,2013-02-23 08:11:00,
2013-02-23 01:16:00,35.0,24.4,29.46,SE,146,5.0,8.0,65,0.00,,,0.00,0,Wunderground v.1.15,2013-02-23 08:16:00,
2013-02-23 01:22:00,35.1,24.1,29.46,SSE,157,5.0,13.0,64,0.00,,,0.00,0,Wunderground v.1.15,2013-02-23 08:22:00,
2013-02-23 01:27:00,35.3,24.3,29.46,SE,138,9.0,13.0,64,0.00,,,0.00,0,Wunderground v.1.15,2013-02-23 08:27:00,
2013-02-23 01:33:00,35.2,24.2,29.45,SSE,163,6.0,9.0,64,0.00,,,0.00,0,Wunderground v.1.15,2013-02-23 08:33:00,
2013-02-23 01:38:00,35.0,24.4,29.45,South,174,9.0,9.0,65,0.00,,,0.00,0,Wunderground v.1.15,2013-02-23 08:38:00,
2013-02-23 01:43:00,34.9,24.3,29.45,South,173,8.0,10.0,65,0.00,,,0.00,0,Wunderground v.1.15,2013-02-23 08:43:00,
2013-02-23 01:49:00,34.8,24.2,29.45,South,180,7.0,7.0,65,0.00,,,0.00,0,Wunderground v.1.15,2013-02-23 08:49:00,
2013-02-23 01:54:00,34.7,24.1,29.45,SSE,159,7.0,8.0,65,0.00,,,0.00,0,Wunderground v.1.15,2013-02-23 08:54:00,
2013-02-23 01:59:00,34.8,24.2,29.45,SSE,154,11.0,11.0,65,0.00,,,0.00,0,Wunderground v.1.15,2013-02-23 08:59:00,
2013-02-23 02:04:00,34.9,24.3,29.44,SE,146,13.0,16.0,65,0.00,,,0.00,0,Wunderground v.1.15,2013-02-23 09:04:00,
2013-02-23 02:10:00,35.0,24.0,29.44,SE,142,9.0,14.0,64,0.00,,,0.00,0,Wunderground v.1.15,2013-02-23 09:10:00,
2013-02-23 02:15:00,35.1,24.1,29.44,SE,138,9.0,20.0,64,0.00,,,0.00,0,Wunderground v.1.15,2013-02-23 09:15:00,
2013-02-23 02:20:00,35.0,24.0,29.43,SE,146,9.0,12.0,64,0.00,,,0.00,0,Wunderground v.1.15,2013-02-23 09:20:00,
2013-02-23 02:25:00,34.9,24.3,29.43,SSE,158,4.0,16.0,65,0.00,,,0.00,0,Wunderground v.1.15,2013-02-23 09:25:00,
2013-02-23 02:30:00,34.7,24.1,29.43,South,175,7.0,13.0,65,0.00,,,0.00,0,Wunderground v.1.15,2013-02-23 09:30:00,
2013-02-23 02:35:00,34.5,24.3,29.43,SSE,155,8.0,13.0,66,0.00,,,0.00,0,Wunderground v.1.15,2013-02-23 09:35:00,
2013-02-23 02:40:00,34.4,24.2,29.43,SSE,167,2.0,8.0,66,0.00,,,0.00,0,Wunderground v.1.15,2013-02-23 09:40:00,
2013-02-23 02:45:00,34.4,24.6,29.43,SSE,151,10.0,14.0,67,0.00,,,0.00,0,Wunderground v.1.15,2013-02-23 09:45:00,
2013-02-23 02:50:00,34.4,24.6,29.43,SSE,168,5.0,11.0,67,0.00,,,0.00,0,Wunderground v.1.15,2013-02-23 09:50:00,
2013-02-23 02:55:00,34.2,24.4,29.43,SSE,159,4.0,15.0,67,0.00,,,0.00,0,Wunderground v.1.15,2013-02-23 09:55:00,
2013-02-23 03:00:00,34.1,24.3,29.43,SE,145,5.0,8.0,67,0.00,,,0.00,0,Wunderground v.1.15,2013-02-23 10:00:00,
2013-02-23 03:05:00,34.0,24.5,29.43,SSE,147,6.0,10.0,68,0.00,,,0.00,0,Wunderground v.1.15,2013-02-23 10:05:00,
2013-02-23 03:10:00,33.9,24.4,29.43,SSE,166,5.0,9.0,68,0.00,,,0.00,0,Wunderground v.1.15,2013-02-23 10:10:00,
2013-02-23 03:15:00,33.9,24.4,29.43,SE,146,7.0,13.0,68,0.00,,,0.00,0,Wunderground v.1.15,2013-02-23 10:15:00,
2013-02-23 03:20:00,33.9,24.8,29.42,SSW,198,6.0,9.0,69,0.00,,,0.00,0,Wunderground v.1.15,2013-02-23 10:20:00,
2013-02-23 03:25:00,33.9,24.8,29.42,SSE,162,8.0,9.0,69,0.00,,,0.00,0,Wunderground v.1.15,2013-02-23 10:25:00,
2013-02-23 03:30:00,34.0,24.9,29.42,South,184,2.0,8.0,69,0.00,,,0.00,0,Wunderground v.1.15,2013-02-23 10:30:00,
2013-02-23 03:35:00,34.2,25.1,29.42,North,350,10.0,14.0,69,0.00,,,0.00,0,Wunderground v.1.15,2013-02-23 10:35:00,
2013-02-23 03:40:00,31.9,24.2,29.42,NNW,335,13.0,21.0,73,0.00,,,0.00,0,Wunderground v.1.15,2013-02-23 10:40:00,
2013-02-23 03:45:00,30.5,24.1,29.45,WNW,297,20.0,25.0,77,0.00,,,0.00,0,Wunderground v.1.15,2013-02-23 10:45:00,
2013-02-23 03:50:00,30.1,24.4,29.45,NW,311,10.0,13.0,79,0.00,,,0.00,0,Wunderground v.1.15,2013-02-23 10:50:00,
2013-02-23 03:55:00,29.8,24.7,29.45,NW,317,11.0,21.0,81,0.00,,,0.00,0,Wunderground v.1.15,2013-02-23 10:55:00,
2013-02-23 04:00:00,29.7,25.2,29.45,NW,313,9.0,18.0,83,0.00,,,0.00,0,Wunderground v.1.15,2013-02-23 11:00:00,
2013-02-23 04:05:00,29.4,25.2,29.45,NW,313,5.0,18.0,84,0.00,,,0.00,0,Wunderground v.1.15,2013-02-23 11:05:00,
2013-02-23 04:10:00,29.0,25.3,29.45,North,349,14.0,16.0,86,0.00,,,0.00,0,Wunderground v.1.15,2013-02-23 11:10:00,
2013-02-23 04:15:00,28.8,25.4,29.45,NNW,340,14.0,24.0,87,0.00,,,0.00,0,Wunderground v.1.15,2013-02-23 11:15:00,
2013-02-23 04:21:00,28.7,25.6,29.45,WNW,295,18.0,18.0,88,0.00,,,0.00,0,Wunderground v.1.15,2013-02-23 11:21:00,
2013-02-23 04:26:00,28.9,25.8,29.45,WNW,294,11.0,22.0,88,0.00,,,0.00,0,Wunderground v.1.15,2013-02-23 11:26:00,
2013-02-23 04:31:00,28.9,25.8,29.47,NNW,330,8.0,11.0,88,0.00,,,0.00,0,Wunderground v.1.15,2013-02-23 11:31:00,
2013-02-23 04:36:00,28.8,25.7,29.47,North,350,6.0,13.0,88,0.00,,,0.00,0,Wunderground v.1.15,2013-02-23 11:36:00,
2013-02-23 04:41:00,28.7,25.6,29.47,North,351,12.0,12.0,88,0.00,,,0.00,0,Wunderground v.1.15,2013-02-23 11:41:00,
2013-02-23 04:46:00,28.2,25.1,29.47,WNW,298,13.0,16.0,88,0.00,,,0.00,0,Wunderground v.1.15,2013-02-23 11:46:00,
2013-02-23 04:51:00,28.0,24.9,29.47,NW,325,9.0,14.0,88,0.00,,,0.00,0,Wunderground v.1.15,2013-02-23 11:51:00,
2013-02-23 04:56:00,28.3,25.2,29.47,North,355,8.0,15.0,88,0.00,,,0.00,0,Wunderground v.1.15,2013-02-23 11:56:00,
2013-02-23 05:01:00,28.5,25.1,29.47,North,9,9.0,9.0,87,0.00,,,0.00,0,Wunderground v.1.15,2013-02-23 12:01:00,
2013-02-23 05:06:00,28.5,25.1,29.47,NNW,338,4.0,14.0,87,0.00,,,0.00,0,Wunderground v.1.15,2013-02-23 12:06:00,
2013-02-23 05:11:00,28.3,24.9,29.47,NNW,337,2.0,10.0,87,0.00,,,0.00,0,Wunderground v.1.15,2013-02-23 12:11:00,
2013-02-23 05:16:00,28.1,24.7,29.48,NNW,336,3.0,12.0,87,0.00,,,0.00,0,Wunderground v.1.15,2013-02-23 12:16:00,
2013-02-23 05:21:00,27.8,24.4,29.48,NW,321,7.0,11.0,87,0.00,,,0.00,0,Wunderground v.1.15,2013-02-23 12:21:00,
2013-02-23 05:26:00,27.8,24.4,29.48,NNW,336,9.0,14.0,87,0.00,,,0.00,0,Wunderground v.1.15,2013-02-23 12:26:00,
2013-02-23 05:31:00,27.9,24.3,29.48,NNW,330,8.0,12.0,86,0.00,,,0.00,0,Wunderground v.1.15,2013-02-23 12:31:00,
2013-02-23 05:36:00,28.1,24.5,29.48,NNW,348,4.0,12.0,86,0.00,,,0.00,0,Wunderground v.1.15,2013-02-23 12:36:00,
2013-02-23 05:41:00,28.2,24.3,29.48,North,355,4.0,9.0,85,0.00,,,0.00,0,Wunderground v.1.15,2013-02-23 12:41:00,
2013-02-23 05:46:00,28.2,24.0,29.49,NNW,339,13.0,13.0,84,0.00,,,0.00,0,Wunderground v.1.15,2013-02-23 12:46:00,
2013-02-23 05:51:00,28.4,23.9,29.49,NNW,334,8.0,11.0,83,0.00,,,0.00,0,Wunderground v.1.15,2013-02-23 12:51:00,
2013-02-23 05:56:00,28.5,23.7,29.49,NW,321,5.0,15.0,82,0.00,,,0.00,0,Wunderground v.1.15,2013-02-23 12:56:00,
2013-02-23 06:01:00,28.3,23.5,29.50,WNW,300,12.0,18.0,82,0.00,,,0.00,0,Wunderground v.1.15,2013-02-23 13:01:00,
2013-02-23 06:06:00,27.9,23.1,29.50,North,350,7.0,18.0,82,0.00,,,0.00,0,Wunderground v.1.15,2013-02-23 13:06:00,
2013-02-23 06:11:00,27.6,23.1,29.50,NNW,331,6.0,13.0,83,0.00,,,0.00,0,Wunderground v.1.15,2013-02-23 13:11:00,
2013-02-23 06:16:00,27.5,23.3,29.51,NNW,327,6.0,13.0,84,0.00,,,0.00,0,Wunderground v.1.15,2013-02-23 13:16:00,
2013-02-23 06:21:00,27.5,23.3,29.51,North,351,6.0,7.0,84,0.00,,,0.00,0,Wunderground v.1.15,2013-02-23 13:21:00,
2013-02-23 06:26:00,27.6,23.1,29.51,NNW,345,3.0,7.0,83,0.00,,,0.00,0,Wunderground v.1.15,2013-02-23 13:26:00,
2013-02-23 06:31:00,27.7,22.9,29.52,North,355,0.0,4.0,82,0.00,,,0.00,0,Wunderground v.1.15,2013-02-23 13:31:00,
2013-02-23 06:36:00,27.8,23.0,29.52,North,355,0.0,4.0,82,0.00,,,0.00,0,Wunderground v.1.15,2013-02-23 13:36:00,
2013-02-23 06:41:00,27.7,22.9,29.52,North,355,1.0,3.0,82,0.00,,,0.00,0,Wunderground v.1.15,2013-02-23 13:41:00,
2013-02-23 06:46:00,27.6,22.8,29.52,North,5,1.0,4.0,82,0.00,,,0.00,0,Wunderground v.1.15,2013-02-23 13:46:00,
2013-02-23 06:51:00,27.5,22.7,29.52,NNE,26,0.0,5.0,82,0.00,,,0.00,0,Wunderground v.1.15,2013-02-23 13:51:00,
2013-02-23 06:56:00,27.4,22.3,29.52,NNE,25,2.0,5.0,81,0.00,,,0.00,0,Wunderground v.1.15,2013-02-23 13:56:00,
2013-02-23 07:01:00,27.3,21.9,29.52,NNE,25,2.0,2.0,80,0.00,,,0.00,0,Wunderground v.1.15,2013-02-23 14:01:00,
2013-02-23 07:06:00,27.2,21.5,29.52,NNE,25,0.0,2.0,79,0.00,,,0.00,0,Wunderground v.1.15,2013-02-23 14:06:00,
2013-02-23 07:11:00,27.1,21.5,29.52,NNE,25,0.0,2.0,79,0.00,,,0.00,0,Wunderground v.1.15,2013-02-23 14:11:00,
2013-02-23 07:16:00,26.9,21.0,29.53,NNE,25,0.0,2.0,78,0.00,,,0.00,0,Wunderground v.1.15,2013-02-23 14:16:00,
2013-02-23 07:22:00,26.9,21.0,29.53,NNE,25,0.0,0.0,78,0.00,,,0.00,0,Wunderground v.1.15,2013-02-23 14:22:00,
2013-02-23 07:27:00,26.8,20.9,29.53,NNE,26,2.0,3.0,78,0.00,,,0.00,7,Wunderground v.1.15,2013-02-23 14:27:00,
2013-02-23 07:32:00,26.8,20.9,29.54,NNE,25,0.0,0.0,78,0.00,,,0.00,11,Wunderground v.1.15,2013-02-23 14:32:00,
2013-02-23 07:37:00,26.8,20.9,29.54,NNE,25,4.0,5.0,78,0.00,,,0.00,16,Wunderground v.1.15,2013-02-23 14:37:00,
2013-02-23 07:42:00,26.8,20.9,29.54,NNE,25,0.0,5.0,78,0.00,,,0.00,18,Wunderground v.1.15,2013-02-23 14:42:00,
2013-02-23 07:47:00,26.8,20.9,29.55,NNE,25,1.0,5.0,78,0.00,,,0.00,25,Wunderground v.1.15,2013-02-23 14:47:00,
2013-02-23 07:52:00,26.7,20.8,29.55,NNE,25,0.0,1.0,78,0.00,,,0.00,35,Wunderground v.1.15,2013-02-23 14:52:00,
2013-02-23 07:57:00,26.7,20.8,29.55,NNE,25,0.0,3.0,78,0.00,,,0.00,44,Wunderground v.1.15,2013-02-23 14:57:00,
2013-02-23 08:02:00,26.7,20.8,29.56,NNE,25,0.0,2.0,78,0.00,,,0.00,49,Wunderground v.1.15,2013-02-23 15:02:00,
2013-02-23 08:07:00,26.7,20.8,29.56,NNE,25,0.0,4.0,78,0.00,,,0.00,40,Wunderground v.1.15,2013-02-23 15:07:00,
2013-02-23 08:12:00,26.7,20.5,29.56,NNE,26,0.0,2.0,77,0.00,,,0.00,33,Wunderground v.1.15,2013-02-23 15:12:00,
2013-02-23 08:17:00,26.9,20.7,29.55,NNE,16,6.0,7.0,77,0.00,,,0.00,42,Wunderground v.1.15,2013-02-23 15:17:00,
2013-02-23 08:22:00,27.0,20.1,29.55,NW,317,4.0,5.0,75,0.00,,,0.00,49,Wunderground v.1.15,2013-02-23 15:22:00,
2013-02-23 08:27:00,27.0,19.8,29.55,NNW,338,3.0,7.0,74,0.00,,,0.00,51,Wunderground v.1.15,2013-02-23 15:27:00,
2013-02-23 08:32:00,27.1,19.3,29.56,NW,318,6.0,9.0,72,0.00,,,0.00,54,Wunderground v.1.15,2013-02-23 15:32:00,
2013-02-23 08:37:00,27.6,17.0,29.56,West,276,11.0,15.0,64,0.00,,,0.00,63,Wunderground v.1.15,2013-02-23 15:37:00,
2013-02-23 08:42:00,28.2,16.1,29.56,WNW,292,8.0,11.0,60,0.00,,,0.00,72,Wunderground v.1.15,2013-02-23 15:42:00,
2013-02-23 08:47:00,28.4,15.5,29.58,West,272,5.0,13.0,58,0.00,,,0.00,76,Wunderground v.1.15,2013-02-23 15:47:00,
2013-02-23 08:52:00,28.7,14.6,29.58,NW,306,6.0,15.0,55,0.00,,,0.00,74,Wunderground v.1.15,2013-02-23 15:52:00,
2013-02-23 08:57:00,28.7,14.1,29.58,WSW,249,7.0,17.0,54,0.00,,,0.00,76,Wunderground v.1.15,2013-02-23 15:57:00,
2013-02-23 09:02:00,28.6,14.5,29.59,West,260,3.0,11.0,55,0.00,,,0.00,84,Wunderground v.1.15,2013-02-23 16:02:00,
2013-02-23 09:07:00,28.5,14.4,29.59,WNW,288,4.0,11.0,55,0.00,,,0.00,104,Wunderground v.1.15,2013-02-23 16:07:00,
2013-02-23 09:13:00,28.5,13.9,29.59,West,272,3.0,13.0,54,0.00,,,0.00,127,Wunderground v.1.15,2013-02-23 16:13:00,
2013-02-23 09:18:00,28.7,13.7,29.59,West,281,8.0,13.0,53,0.00,,,0.00,141,Wunderground v.1.15,2013-02-23 16:18:00,
2013-02-23 09:23:00,28.8,13.8,29.59,West,279,6.0,11.0,53,0.00,,,0.00,155,Wunderground v.1.15,2013-02-23 16:23:00,
2013-02-23 09:28:00,29.2,12.8,29.59,West,279,4.0,12.0,50,0.00,,,0.00,178,Wunderground v.1.15,2013-02-23 16:28:00,
2013-02-23 09:33:00,29.3,13.8,29.59,NW,305,5.0,8.0,52,0.00,,,0.00,188,Wunderground v.1.15,2013-02-23 16:33:00,
2013-02-23 09:38:00,29.5,14.0,29.59,WNW,295,6.0,9.0,52,0.00,,,0.00,185,Wunderground v.1.15,2013-02-23 16:38:00,
2013-02-23 09:43:00,29.6,13.2,29.59,West,281,6.0,9.0,50,0.00,,,0.00,200,Wunderground v.1.15,2013-02-23 16:43:00,
2013-02-23 09:48:00,29.7,13.3,29.60,WSW,254,5.0,9.0,50,0.00,,,0.00,221,Wunderground v.1.15,2013-02-23 16:48:00,
2013-02-23 09:53:00,29.9,13.5,29.60,WNW,298,7.0,10.0,50,0.00,,,0.00,239,Wunderground v.1.15,2013-02-23 16:53:00,
2013-02-23 09:58:00,30.1,13.2,29.60,WNW,292,5.0,11.0,49,0.00,,,0.00,232,Wunderground v.1.15,2013-02-23 16:58:00,
2013-02-23 10:03:00,30.2,13.3,29.60,WNW,293,6.0,11.0,49,0.00,,,0.00,230,Wunderground v.1.15,2013-02-23 17:03:00,
2013-02-23 10:08:00,30.4,13.5,29.60,NW,309,6.0,11.0,49,0.00,,,0.00,253,Wunderground v.1.15,2013-02-23 17:08:00,
2013-02-23 10:13:00,30.5,13.1,29.60,WNW,286,10.0,13.0,48,0.00,,,0.00,292,Wunderground v.1.15,2013-02-23 17:13:00,
2013-02-23 10:18:00,30.5,13.1,29.62,NW,311,7.0,15.0,48,0.00,,,0.00,338,Wunderground v.1.15,2013-02-23 17:18:00,
2013-02-23 10:23:00,30.8,13.9,29.62,NW,311,4.0,11.0,49,0.00,,,0.00,371,Wunderground v.1.15,2013-02-23 17:23:00,
2013-02-23 10:28:00,30.9,14.0,29.62,North,355,4.0,11.0,49,0.00,,,0.00,360,Wunderground v.1.15,2013-02-23 17:28:00,
2013-02-23 10:33:00,31.1,14.6,29.63,WNW,292,15.0,15.0,50,0.00,,,0.00,362,Wunderground v.1.15,2013-02-23 17:33:00,
2013-02-23 10:38:00,31.0,14.0,29.63,WNW,302,12.0,16.0,49,0.00,,,0.00,348,Wunderground v.1.15,2013-02-23 17:38:00,
2013-02-23 10:43:00,30.7,13.3,29.63,West,270,3.0,17.0,48,0.00,,,0.00,371,Wunderground v.1.15,2013-02-23 17:43:00,
2013-02-23 10:48:00,30.5,13.6,29.64,NW,311,7.0,17.0,49,0.00,,,0.00,397,Wunderground v.1.15,2013-02-23 17:48:00,
2013-02-23 10:53:00,30.6,13.2,29.64,WNW,286,8.0,14.0,48,0.00,,,0.00,360,Wunderground v.1.15,2013-02-23 17:53:00,
2013-02-23 10:58:00,30.5,13.1,29.64,WNW,290,11.0,14.0,48,0.00,,,0.00,330,Wunderground v.1.15,2013-02-23 17:58:00,
2013-02-23 11:03:00,30.3,13.4,29.64,WNW,288,11.0,13.0,49,0.00,,,0.00,302,Wunderground v.1.15,2013-02-23 18:03:00,
2013-02-23 11:08:00,30.5,13.1,29.64,WNW,292,11.0,16.0,48,0.00,,,0.00,378,Wunderground v.1.15,2013-02-23 18:08:00,
2013-02-23 11:13:00,30.9,14.4,29.64,WNW,298,7.0,11.0,50,0.00,,,0.00,432,Wunderground v.1.15,2013-02-23 18:13:00,
2013-02-23 11:18:00,31.5,14.5,29.65,NW,314,10.0,14.0,49,0.00,,,0.00,441,Wunderground v.1.15,2013-02-23 18:18:00,
2013-02-23 11:23:00,31.4,13.9,29.65,WNW,292,8.0,15.0,48,0.00,,,0.00,327,Wunderground v.1.15,2013-02-23 18:23:00,
2013-02-23 11:28:00,31.8,14.8,29.65,WNW,302,5.0,15.0,49,0.00,,,0.00,343,Wunderground v.1.15,2013-02-23 18:28:00,
2013-02-23 11:33:00,32.0,14.5,29.64,NNW,327,3.0,8.0,48,0.00,,,0.00,580,Wunderground v.1.15,2013-02-23 18:33:00,
2013-02-23 11:38:00,32.4,15.3,29.64,NW,325,4.0,10.0,49,0.00,,,0.00,587,Wunderground v.1.15,2013-02-23 18:38:00,
2013-02-23 11:43:00,33.8,17.1,29.64,WNW,295,10.0,13.0,50,0.00,,,0.00,599,Wunderground v.1.15,2013-02-23 18:43:00,
2013-02-23 11:48:00,33.5,16.4,29.64,NW,319,11.0,13.0,49,0.00,,,0.00,668,Wunderground v.1.15,2013-02-23 18:48:00,
2013-02-23 11:53:00,33.2,15.1,29.64,NW,325,4.0,18.0,47,0.00,,,0.00,404,Wunderground v.1.15,2013-02-23 18:53:00,
2013-02-23 11:58:00,32.7,16.1,29.64,NW,321,5.0,18.0,50,0.00,,,0.00,397,Wunderground v.1.15,2013-02-23 18:58:00,
2013-02-23 12:03:00,32.3,16.6,29.65,NNW,342,9.0,14.0,52,0.00,,,0.00,424,Wunderground v.1.15,2013-02-23 19:03:00,
2013-02-23 12:09:00,31.5,16.3,29.65,NNW,342,6.0,15.0,53,0.00,,,0.00,323,Wunderground v.1.15,2013-02-23 19:09:00,
2013-02-23 12:14:00,31.0,16.7,29.65,North,350,7.0,12.0,55,0.00,,,0.00,308,Wunderground v.1.15,2013-02-23 19:14:00,
2013-02-23 12:19:00,31.1,16.8,29.66,NNW,328,4.0,13.0,55,0.00,,,0.00,366,Wunderground v.1.15,2013-02-23 19:19:00,
2013-02-23 12:24:00,30.6,15.5,29.66,NW,321,7.0,17.0,53,0.00,,,0.00,315,Wunderground v.1.15,2013-02-23 19:24:00,
2013-02-23 12:29:00,31.2,16.9,29.66,NNW,340,5.0,17.0,55,0.00,,,0.00,258,Wunderground v.1.15,2013-02-23 19:29:00,
2013-02-23 12:34:00,31.3,17.0,29.66,North,350,6.0,12.0,55,0.00,,,0.01,283,Wunderground v.1.15,2013-02-23 19:34:00,
2013-02-23 12:39:00,31.2,16.5,29.66,North,355,5.0,13.0,54,0.00,,,0.01,381,Wunderground v.1.15,2013-02-23 19:39:00,
2013-02-23 12:44:00,31.7,16.9,29.66,NW,309,7.0,11.0,54,0.00,,,0.01,274,Wunderground v.1.15,2013-02-23 19:44:00,
2013-02-23 12:49:00,31.8,17.0,29.66,NW,318,7.0,12.0,54,0.00,,,0.01,288,Wunderground v.1.15,2013-02-23 19:49:00,
2013-02-23 12:54:00,31.7,16.9,29.66,NW,317,9.0,14.0,54,0.00,,,0.01,288,Wunderground v.1.15,2013-02-23 19:54:00,
2013-02-23 12:59:00,31.5,16.3,29.66,NW,313,9.0,14.0,53,0.00,,,0.01,283,Wunderground v.1.15,2013-02-23 19:59:00,
2013-02-23 13:04:00,31.8,14.8,29.66,NW,317,6.0,17.0,49,0.00,,,0.01,283,Wunderground v.1.15,2013-02-23 20:04:00,
2013-02-23 13:09:00,31.8,16.2,29.66,NNW,331,10.0,10.0,52,0.00,,,0.01,279,Wunderground v.1.15,2013-02-23 20:09:00,
2013-02-23 13:14:00,31.7,15.6,29.66,NNW,334,8.0,13.0,51,0.00,,,0.01,381,Wunderground v.1.15,2013-02-23 20:14:00,
2013-02-23 13:19:00,32.1,15.5,29.66,NW,323,8.0,8.0,50,0.00,,,0.01,380,Wunderground v.1.15,2013-02-23 20:19:00,
2013-02-23 13:24:00,32.3,15.3,29.66,NNW,329,8.0,14.0,49,0.00,,,0.01,353,Wunderground v.1.15,2013-02-23 20:24:00,
2013-02-23 13:29:00,32.6,15.5,29.66,NW,326,11.0,12.0,49,0.00,,,0.01,285,Wunderground v.1.15,2013-02-23 20:29:00,
2013-02-23 13:34:00,32.7,14.7,29.66,NW,319,12.0,19.0,47,0.00,,,0.01,353,Wunderground v.1.15,2013-02-23 20:34:00,
2013-02-23 13:39:00,33.0,14.9,29.66,WNW,284,9.0,17.0,47,0.00,,,0.01,399,Wunderground v.1.15,2013-02-23 20:39:00,
2013-02-23 13:44:00,33.5,15.4,29.66,WNW,294,12.0,17.0,47,0.00,,,0.01,492,Wunderground v.1.15,2013-02-23 20:44:00,
2013-02-23 13:49:00,33.9,15.8,29.66,North,355,13.0,13.0,47,0.00,,,0.01,322,Wunderground v.1.15,2013-02-23 20:49:00,
2013-02-23 13:54:00,32.9,14.8,29.66,NW,307,9.0,20.0,47,0.00,,,0.01,274,Wunderground v.1.15,2013-02-23 20:54:00,
2013-02-23 13:59:00,32.5,15.4,29.66,NW,306,13.0,13.0,49,0.00,,,0.01,234,Wunderground v.1.15,2013-02-23 20:59:00,
2013-02-23 14:04:00,32.2,14.7,29.66,WNW,301,7.0,17.0,48,0.00,,,0.01,149,Wunderground v.1.15,2013-02-23 21:04:00,
2013-02-23 14:09:00,32.0,14.5,29.66,WNW,295,10.0,11.0,48,0.00,,,0.01,174,Wunderground v.1.15,2013-02-23 21:09:00,
2013-02-23 14:14:00,32.0,13.5,29.66,NW,306,10.0,14.0,46,0.00,,,0.01,230,Wunderground v.1.15,2013-02-23 21:14:00,
2013-02-23 14:20:00,32.1,14.1,29.66,NW,309,12.0,12.0,47,0.00,,,0.01,371,Wunderground v.1.15,2013-02-23 21:20:00,
2013-02-23 14:25:00,33.2,14.6,29.66,WNW,294,11.0,15.0,46,0.00,,,0.01,570,Wunderground v.1.15,2013-02-23 21:25:00,
2013-02-23 14:30:00,34.4,15.2,29.66,NW,310,12.0,13.0,45,0.00,,,0.01,643,Wunderground v.1.15,2013-02-23 21:30:00,
2013-02-23 14:35:00,35.2,16.0,29.67,NW,314,9.0,18.0,45,0.00,,,0.01,693,Wunderground v.1.15,2013-02-23 21:35:00,
2013-02-23 14:40:00,34.7,13.9,29.67,WNW,297,11.0,12.0,42,0.00,,,0.01,299,Wunderground v.1.15,2013-02-23 21:40:00,
2013-02-23 14:45:00,34.1,15.5,29.67,WNW,301,14.0,17.0,46,0.00,,,0.01,304,Wunderground v.1.15,2013-02-23 21:45:00,
2013-02-23 14:50:00,33.5,14.4,29.68,NNW,333,5.0,10.0,45,0.00,,,0.01,236,Wunderground v.1.15,2013-02-23 21:50:00,
2013-02-23 14:55:00,33.2,14.6,29.68,NW,319,7.0,20.0,46,0.00,,,0.01,262,Wunderground v.1.15,2013-02-23 21:55:00,
2013-02-23 15:00:00,33.9,15.8,29.68,NW,326,13.0,14.0,47,0.00,,,0.01,366,Wunderground v.1.15,2013-02-23 22:00:00,
2013-02-23 15:05:00,33.7,15.6,29.69,NW,318,8.0,18.0,47,0.00,,,0.01,264,Wunderground v.1.15,2013-02-23 22:05:00,
2013-02-23 15:10:00,33.2,15.1,29.69,NNW,330,6.0,10.0,47,0.00,,,0.01,186,Wunderground v.1.15,2013-02-23 22:10:00,
2013-02-23 15:15:00,32.3,15.7,29.69,NNW,344,14.0,14.0,50,0.00,,,0.01,204,Wunderground v.1.15,2013-02-23 22:15:00,
2013-02-23 15:20:00,31.5,15.4,29.70,NNW,342,15.0,15.0,51,0.00,,,0.01,179,Wunderground v.1.15,2013-02-23 22:20:00,
2013-02-23 15:25:00,31.2,16.0,29.70,NNW,344,15.0,17.0,53,0.00,,,0.01,188,Wunderground v.1.15,2013-02-23 22:25:00,
2013-02-23 15:30:00,31.0,16.7,29.70,NNW,345,8.0,12.0,55,0.00,,,0.01,199,Wunderground v.1.15,2013-02-23 22:30:00,
2013-02-23 15:35:00,31.0,17.1,29.71,North,360,12.0,15.0,56,0.00,,,0.01,199,Wunderground v.1.15,2013-02-23 22:35:00,
2013-02-23 15:40:00,30.8,16.9,29.71,North,349,13.0,14.0,56,0.00,,,0.01,221,Wunderground v.1.15,2013-02-23 22:40:00,
2013-02-23 15:45:00,30.9,17.4,29.71,NW,325,5.0,18.0,57,0.00,,,0.01,186,Wunderground v.1.15,2013-02-23 22:45:00,
2013-02-23 15:50:00,30.9,17.8,29.72,NNW,346,9.0,11.0,58,0.00,,,0.01,197,Wunderground v.1.15,2013-02-23 22:50:00,
2013-02-23 15:55:00,30.7,18.1,29.72,North,350,16.0,20.0,59,0.00,,,0.01,156,Wunderground v.1.15,2013-02-23 22:55:00,
2013-02-23 16:00:00,30.6,18.0,29.72,North,360,10.0,17.0,59,0.00,,,0.01,160,Wunderground v.1.15,2013-02-23 23:00:00,
2013-02-23 16:05:00,30.4,17.8,29.72,NNW,330,10.0,17.0,59,0.00,,,0.01,156,Wunderground v.1.15,2013-02-23 23:05:00,
2013-02-23 16:10:00,30.2,18.0,29.72,North,350,8.0,12.0,60,0.00,,,0.01,141,Wunderground v.1.15,2013-02-23 23:10:00,
2013-02-23 16:15:00,30.1,18.3,29.72,NNW,339,8.0,15.0,61,0.00,,,0.01,123,Wunderground v.1.15,2013-02-23 23:15:00,
2013-02-23 16:20:00,29.8,18.0,29.74,NNW,346,14.0,14.0,61,0.00,,,0.01,107,Wunderground v.1.15,2013-02-23 23:20:00,
2013-02-23 16:25:00,29.7,18.3,29.74,NNW,337,5.0,14.0,62,0.00,,,0.01,104,Wunderground v.1.15,2013-02-23 23:25:00,
2013-02-23 16:30:00,29.6,18.2,29.74,NNW,342,10.0,10.0,62,0.00,,,0.01,100,Wunderground v.1.15,2013-02-23 23:30:00,
2013-02-23 16:35:00,29.5,18.4,29.74,NW,323,6.0,14.0,63,0.00,,,0.01,93,Wunderground v.1.15,2013-02-23 23:35:00,
2013-02-23 16:40:00,29.5,18.1,29.74,North,355,8.0,11.0,62,0.00,,,0.01,81,Wunderground v.1.15,2013-02-23 23:40:00,
2013-02-23 16:45:00,29.7,17.5,29.74,WNW,303,8.0,16.0,60,0.00,,,0.01,69,Wunderground v.1.15,2013-02-23 23:45:00,
2013-02-23 16:50:00,29.8,17.2,29.75,West,273,8.0,17.0,59,0.00,,,0.01,74,Wunderground v.1.15,2013-02-23 23:50:00,
2013-02-23 16:55:00,30.0,16.6,29.75,NW,322,7.0,20.0,57,0.00,,,0.01,77,Wunderground v.1.15,2013-02-23 23:55:00,
2013-02-23 17:00:00,30.0,16.2,29.75,NNW,348,8.0,10.0,56,0.00,,,0.01,74,Wunderground v.1.15,2013-02-24 00:00:00,
2013-02-23 17:05:00,29.8,16.4,29.75,NW,315,15.0,16.0,57,0.00,,,0.01,69,Wunderground v.1.15,2013-02-24 00:05:00,
2013-02-23 17:10:00,29.7,16.7,29.75,NNW,344,6.0,8.0,58,0.00,,,0.01,56,Wunderground v.1.15,2013-02-24 00:10:00,
2013-02-23 17:15:00,29.4,17.2,29.75,North,5,2.0,15.0,60,0.00,,,0.01,47,Wunderground v.1.15,2013-02-24 00:15:00,
2013-02-23 17:20:00,29.2,17.4,29.76,North,9,4.0,7.0,61,0.00,,,0.01,40,Wunderground v.1.15,2013-02-24 00:20:00,
2013-02-23 17:25:00,28.9,17.5,29.76,North,360,5.0,12.0,62,0.00,,,0.01,33,Wunderground v.1.15,2013-02-24 00:25:00,
2013-02-23 17:30:00,28.6,17.6,29.76,NNW,330,9.0,13.0,63,0.00,,,0.01,28,Wunderground v.1.15,2013-02-24 00:30:00,
2013-02-23 17:35:00,28.4,17.8,29.77,North,351,7.0,13.0,64,0.00,,,0.01,25,Wunderground v.1.15,2013-02-24 00:35:00,
2013-02-23 17:40:00,28.2,17.6,29.77,NNW,328,7.0,8.0,64,0.00,,,0.01,21,Wunderground v.1.15,2013-02-24 00:40:00,
2013-02-23 17:45:00,28.3,17.7,29.77,North,360,5.0,11.0,64,0.00,,,0.01,19,Wunderground v.1.15,2013-02-24 00:45:00,
2013-02-23 17:50:00,28.3,17.3,29.78,North,360,2.0,6.0,63,0.00,,,0.01,14,Wunderground v.1.15,2013-02-24 00:50:00,
2013-02-23 17:55:00,28.2,17.6,29.78,NNW,342,2.0,7.0,64,0.00,,,0.01,11,Wunderground v.1.15,2013-02-24 00:55:00,
2013-02-23 18:00:00,28.1,17.5,29.78,NNW,346,5.0,7.0,64,0.00,,,0.01,5,Wunderground v.1.15,2013-02-24 01:00:00,
2013-02-23 18:05:00,28.0,17.4,29.80,North,355,4.0,10.0,64,0.00,,,0.01,5,Wunderground v.1.15,2013-02-24 01:05:00,
2013-02-23 18:10:00,28.0,17.0,29.80,NNW,346,5.0,10.0,63,0.00,,,0.01,0,Wunderground v.1.15,2013-02-24 01:10:00,
2013-02-23 18:15:00,28.0,17.4,29.80,North,349,7.0,10.0,64,0.00,,,0.01,0,Wunderground v.1.15,2013-02-24 01:15:00,
2013-02-23 18:20:00,27.9,17.3,29.81,NNW,337,9.0,9.0,64,0.00,,,0.01,0,Wunderground v.1.15,2013-02-24 01:20:00,
2013-02-23 18:25:00,27.8,17.6,29.81,NNW,339,6.0,11.0,65,0.00,,,0.01,0,Wunderground v.1.15,2013-02-24 01:25:00,
2013-02-23 18:30:00,27.7,17.8,29.81,NNW,334,5.0,9.0,66,0.00,,,0.01,0,Wunderground v.1.15,2013-02-24 01:30:00,
2013-02-23 18:35:00,27.6,17.7,29.82,NNW,336,2.0,11.0,66,0.00,,,0.01,0,Wunderground v.1.15,2013-02-24 01:35:00,
2013-02-23 18:40:00,27.5,17.6,29.82,NNW,339,7.0,7.0,66,0.00,,,0.01,0,Wunderground v.1.15,2013-02-24 01:40:00,
2013-02-23 18:45:00,27.4,17.9,29.82,NNW,336,1.0,9.0,67,0.00,,,0.01,0,Wunderground v.1.15,2013-02-24 01:45:00,
2013-02-23 18:50:00,27.4,17.9,29.83,NNW,336,3.0,5.0,67,0.00,,,0.01,0,Wunderground v.1.15,2013-02-24 01:50:00,
2013-02-23 18:55:00,27.4,18.2,29.83,NNW,343,3.0,5.0,68,0.00,,,0.01,0,Wunderground v.1.15,2013-02-24 01:55:00,
2013-02-23 19:00:00,27.4,17.9,29.83,NNW,343,0.0,2.0,67,0.00,,,0.01,0,Wunderground v.1.15,2013-02-24 02:00:00,
2013-02-23 19:05:00,27.4,18.2,29.84,NNW,342,3.0,3.0,68,0.00,,,0.01,0,Wunderground v.1.15,2013-02-24 02:05:00,
2013-02-23 19:10:00,27.4,18.2,29.84,NNW,348,4.0,6.0,68,0.00,,,0.01,0,Wunderground v.1.15,2013-02-24 02:10:00,
2013-02-23 19:15:00,27.4,18.2,29.84,North,350,0.0,6.0,68,0.00,,,0.01,0,Wunderground v.1.15,2013-02-24 02:15:00,
2013-02-23 19:20:00,27.4,17.9,29.85,North,355,0.0,4.0,67,0.00,,,0.01,0,Wunderground v.1.15,2013-02-24 02:20:00,
2013-02-23 19:25:00,27.5,18.0,29.85,North,5,2.0,7.0,67,0.00,,,0.01,0,Wunderground v.1.15,2013-02-24 02:25:00,
2013-02-23 19:30:00,27.4,17.9,29.85,North,9,3.0,5.0,67,0.00,,,0.01,0,Wunderground v.1.15,2013-02-24 02:30:00,
2013-02-23 19:35:00,27.4,17.9,29.86,North,360,4.0,6.0,67,0.00,,,0.01,0,Wunderground v.1.15,2013-02-24 02:35:00,
2013-02-23 19:40:00,27.3,18.1,29.86,North,360,3.0,4.0,68,0.00,,,0.01,0,Wunderground v.1.15,2013-02-24 02:40:00,
2013-02-23 19:45:00,27.3,18.1,29.88,North,360,2.0,6.0,68,0.00,,,0.01,0,Wunderground v.1.15,2013-02-24 02:45:00,
2013-02-23 19:50:00,27.2,18.0,29.88,North,360,1.0,3.0,68,0.00,,,0.01,0,Wunderground v.1.15,2013-02-24 02:50:00,
2013-02-23 19:55:00,27.2,18.4,29.88,North,360,0.0,3.0,69,0.00,,,0.01,0,Wunderground v.1.15,2013-02-24 02:55:00,
2013-02-23 20:01:00,27.2,18.0,29.89,NNE,29,0.0,1.0,68,0.00,,,0.01,0,Wunderground v.1.15,2013-02-24 03:01:00,
2013-02-23 20:05:00,27.2,18.0,29.89,NNE,28,0.0,4.0,68,0.00,,,0.01,0,Wunderground v.1.15,2013-02-24 03:05:00,
2013-02-23 20:10:00,27.2,17.7,29.89,North,360,0.0,3.0,67,0.00,,,0.01,0,Wunderground v.1.15,2013-02-24 03:10:00,
2013-02-23 20:15:00,27.2,18.0,29.89,NNE,24,0.0,6.0,68,0.00,,,0.01,0,Wunderground v.1.15,2013-02-24 03:15:00,
2013-02-23 20:21:00,27.1,17.9,29.89,NNE,24,3.0,3.0,68,0.00,,,0.01,0,Wunderground v.1.15,2013-02-24 03:21:00,
2013-02-23 20:26:00,27.0,18.2,29.89,NNE,25,0.0,4.0,69,0.00,,,0.01,0,Wunderground v.1.15,2013-02-24 03:26:00,
2013-02-23 20:31:00,26.9,17.7,29.90,NNE,25,0.0,2.0,68,0.00,,,0.01,0,Wunderground v.1.15,2013-02-24 03:31:00,
2013-02-23 20:36:00,26.7,17.6,29.90,NNE,24,0.0,3.0,68,0.00,,,0.01,0,Wunderground v.1.15,2013-02-24 03:36:00,
2013-02-23 20:41:00,26.6,17.5,29.90,NNE,24,3.0,4.0,68,0.00,,,0.01,0,Wunderground v.1.15,2013-02-24 03:41:00,
2013-02-23 20:46:00,26.6,16.8,29.91,NNE,25,3.0,5.0,66,0.00,,,0.01,0,Wunderground v.1.15,2013-02-24 03:46:00,
2013-02-23 20:51:00,26.8,17.0,29.91,NNE,24,2.0,7.0,66,0.00,,,0.01,0,Wunderground v.1.15,2013-02-24 03:51:00,
2013-02-23 20:56:00,26.8,16.6,29.91,NNW,333,4.0,7.0,65,0.00,,,0.01,0,Wunderground v.1.15,2013-02-24 03:56:00,
2013-02-23 21:01:00,26.9,16.3,29.92,NNW,344,2.0,6.0,64,0.00,,,0.01,0,Wunderground v.1.15,2013-02-24 04:01:00,
2013-02-23 21:06:00,26.8,16.2,29.92,NNW,343,0.0,6.0,64,0.00,,,0.01,0,Wunderground v.1.15,2013-02-24 04:06:00,
2013-02-23 21:11:00,26.7,16.5,29.92,North,11,0.0,5.0,65,0.00,,,0.01,0,Wunderground v.1.15,2013-02-24 04:11:00,
2013-02-23 21:16:00,26.5,16.7,29.92,North,11,0.0,5.0,66,0.00,,,0.01,0,Wunderground v.1.15,2013-02-24 04:16:00,
2013-02-23 21:21:00,26.3,16.8,29.92,North,11,0.0,1.0,67,0.00,,,0.01,0,Wunderground v.1.15,2013-02-24 04:21:00,
2013-02-23 21:26:00,26.1,17.0,29.92,North,11,0.0,1.0,68,0.00,,,0.01,0,Wunderground v.1.15,2013-02-24 04:26:00,
2013-02-23 21:31:00,25.9,17.1,29.93,North,11,2.0,3.0,69,0.00,,,0.01,0,Wunderground v.1.15,2013-02-24 04:31:00,
2013-02-23 21:36:00,25.5,16.7,29.93,NNE,12,0.0,3.0,69,0.00,,,0.01,0,Wunderground v.1.15,2013-02-24 04:36:00,
2013-02-23 21:41:00,25.1,16.4,29.93,North,11,0.0,3.0,69,0.00,,,0.01,0,Wunderground v.1.15,2013-02-24 04:41:00,
2013-02-23 21:46:00,24.9,16.5,29.94,NNE,12,0.0,3.0,70,0.00,,,0.01,0,Wunderground v.1.15,2013-02-24 04:46:00,
2013-02-23 21:51:00,24.8,18.3,29.94,NNE,12,0.0,1.0,76,0.00,,,0.01,0,Wunderground v.1.15,2013-02-24 04:51:00,
2013-02-23 21:56:00,24.7,16.6,29.94,NNE,12,0.0,1.0,71,0.00,,,0.01,0,Wunderground v.1.15,2013-02-24 04:56:00,
2013-02-23 22:00:00,24.7,16.6,29.94,NNE,12,0.0,0.0,71,0.00,,,0.01,0,Wunderground v.1.15,2013-02-24 05:00:00,
2013-02-23 22:01:00,24.6,16.5,29.94,North,11,0.0,0.0,71,0.00,,,0.01,0,Wunderground v.1.15,2013-02-24 05:01:00,
2013-02-23 22:06:00,24.5,16.4,29.94,North,11,0.0,0.0,71,0.00,,,0.01,0,Wunderground v.1.15,2013-02-24 05:06:00,
2013-02-23 22:11:00,24.4,16.3,29.94,North,11,0.0,0.0,71,0.00,,,0.01,0,Wunderground v.1.15,2013-02-24 05:11:00,
2013-02-23 22:16:00,24.5,16.8,29.95,NNE,12,1.0,3.0,72,0.00,,,0.01,0,Wunderground v.1.15,2013-02-24 05:16:00,
2013-02-23 22:21:00,24.5,16.8,29.95,NNE,12,0.0,3.0,72,0.00,,,0.01,0,Wunderground v.1.15,2013-02-24 05:21:00,
2013-02-23 22:26:00,24.8,16.7,29.95,NE,40,2.0,7.0,71,0.00,,,0.01,0,Wunderground v.1.15,2013-02-24 05:26:00,
2013-02-23 22:31:00,25.1,16.7,29.95,NE,45,3.0,5.0,70,0.00,,,0.01,0,Wunderground v.1.15,2013-02-24 05:31:00,
2013-02-23 22:36:00,25.1,16.7,29.95,NE,42,0.0,8.0,70,0.00,,,0.01,0,Wunderground v.1.15,2013-02-24 05:36:00,
2013-02-23 22:41:00,24.8,18.3,29.95,NE,43,3.0,3.0,76,0.00,,,0.01,0,Wunderground v.1.15,2013-02-24 05:41:00,
2013-02-23 22:46:00,24.6,16.5,29.97,NE,42,0.0,4.0,71,0.00,,,0.01,0,Wunderground v.1.15,2013-02-24 05:46:00,
2013-02-23 22:51:00,24.5,16.8,29.97,NE,41,3.0,4.0,72,0.00,,,0.01,0,Wunderground v.1.15,2013-02-24 05:51:00,
2013-02-23 22:56:00,24.8,16.7,29.97,NE,52,2.0,8.0,71,0.00,,,0.01,0,Wunderground v.1.15,2013-02-24 05:56:00,
2013-02-23 23:01:00,24.4,16.0,29.97,WNW,291,3.0,5.0,70,0.00,,,0.01,0,Wunderground v.1.15,2013-02-24 06:01:00,
2013-02-23 23:06:00,24.2,15.8,29.97,NW,326,3.0,5.0,70,0.00,,,0.01,0,Wunderground v.1.15,2013-02-24 06:06:00,
2013-02-23 23:11:00,24.2,15.8,29.97,North,350,3.0,3.0,70,0.00,,,0.01,0,Wunderground v.1.15,2013-02-24 06:11:00,
2013-02-23 23:16:00,24.0,15.6,29.98,North,350,0.0,3.0,70,0.00,,,0.01,0,Wunderground v.1.15,2013-02-24 06:16:00,
2013-02-23 23:21:00,23.5,15.1,29.98,North,350,0.0,1.0,70,0.00,,,0.01,0,Wunderground v.1.15,2013-02-24 06:21:00,
2013-02-23 23:26:00,23.0,15.0,29.98,North,350,0.0,3.0,71,0.00,,,0.01,0,Wunderground v.1.15,2013-02-24 06:26:00,
2013-02-23 23:31:00,22.9,15.2,29.98,North,351,0.0,2.0,72,0.00,,,0.01,0,Wunderground v.1.15,2013-02-24 06:31:00,
2013-02-23 23:36:00,22.5,14.8,29.98,North,350,0.0,2.0,72,0.00,,,0.01,0,Wunderground v.1.15,2013-02-24 06:36:00,
2013-02-23 23:41:00,22.2,14.9,29.98,North,350,0.0,1.0,73,0.00,,,0.01,0,Wunderground v.1.15,2013-02-24 06:41:00,
2013-02-23 23:46:00,22.0,14.7,29.99,North,350,0.0,1.0,73,0.00,,,0.01,0,Wunderground v.1.15,2013-02-24 06:46:00,
2013-02-23 23:51:00,21.7,14.4,29.99,North,350,0.0,0.0,73,0.00,,,0.01,0,Wunderground v.1.15,2013-02-24 06:51:00,
2013-02-23 23:56:00,21.4,14.4,29.99,North,350,0.0,2.0,74,0.00,,,0.01,0,Wunderground v.1.15,2013-02-24 06:56:00,